Theta_e
307 307 307 307 307 307 306 307 307 308 308 308 308 308 308 307 307 306 305 304 304 308 307 314 315 317 311 310 312 312 315 315 315 312 313 312 312 312 314 313 316 316 331 348 356
306 306 307 307 307 306 307 307 307 307 307 307 307 307 307 307 306 306 311 314 312 309 309 312 312 311 310 309 311 315 315 316 314 315 314 313 315 315 317 316 317 316 318 352 356
303 305 306 306 306 306 306 306 307 309 309 308 308 307 307 306 303 302 321 315 316 316 314 311 312 313 313 307 309 313 318 317 317 317 316 314 316 316 317 316 315 315 316 356 356
302 304 305 304 299 299 302 305 306 309 310 309 308 308 307 306 299 319 315 308 307 307 315 314 314 314 311 313 307 310 312 316 316 317 317 318 317 317 315 316 316 316 316 333 357
305 305 305 305 305 303 304 305 306 306 308 311 309 307 306 304 304 304 307 307 307 307 318 315 311 313 310 309 312 309 310 311 314 315 316 316 317 317 317 316 317 317 316 320 357
305 305 306 305 306 304 305 306 306 306 305 310 310 308 307 307 306 309 309 309 309 307 318 314 309 309 312 311 311 312 311 312 312 311 312 316 316 315 317 316 316 316 315 314 354
304 305 305 305 303 303 304 305 305 305 308 310 310 309 307 307 309 309 309 310 307 307 309 315 313 311 310 312 311 312 313 313 312 312 313 313 314 315 315 315 316 317 315 313 320
303 304 304 302 302 303 305 305 305 306 309 307 309 308 306 308 308 309 309 309 308 307 307 308 313 310 311 311 315 319 318 319 315 312 313 314 318 318 315 315 316 317 315 314 318
301 302 301 302 303 304 305 306 305 309 309 309 309 307 309 308 309 308 308 308 308 308 307 308 313 313 313 314 314 315 319 320 319 316 314 314 317 317 317 315 316 316 316 314 313
301 301 301 302 303 305 306 306 308 309 310 310 310 306 307 307 308 308 309 308 307 307 306 307 305 307 306 312 320 317 321 321 321 317 314 315 316 316 315 315 316 315 315 314 313
300 300 301 302 303 305 306 306 304 302 304 305 304 307 306 308 308 309 312 310 307 306 306 306 306 308 306 308 310 311 313 315 317 315 315 315 315 313 314 314 315 314 314 313 312
299 300 301 302 304 305 305 302 305 306 305 305 305 305 306 307 308 313 314 310 310 309 305 305 306 306 307 309 309 309 310 311 311 314 314 317 317 315 314 313 315 316 313 313 312
299 300 302 303 304 305 305 306 306 307 305 306 308 309 307 307 309 311 313 313 314 313 309 308 308 307 309 310 311 309 310 310 310 310 310 312 315 316 316 314 313 314 314 313 314
298 300 302 303 304 305 305 306 306 306 307 311 308 308 308 307 310 310 313 313 314 314 311 309 309 308 306 306 306 311 312 312 313 311 311 313 317 315 314 314 314 313 313 313 313
298 300 303 304 305 305 307 306 306 306 308 308 308 308 307 308 308 309 310 313 315 316 315 315 313 311 306 306 306 306 310 314 316 314 315 315 312 313 313 314 313 314 313 313 311
298 302 304 306 306 307 306 307 306 305 308 309 307 308 308 309 309 308 308 312 313 316 315 314 312 314 313 313 311 309 315 315 315 314 318 314 312 313 313 313 314 313 313 314 312
298 305 306 305 306 307 307 304 306 305 307 309 308 309 310 310 309 309 310 312 316 319 315 315 316 314 314 314 313 314 314 316 315 317 318 313 313 313 312 312 313 313 313 315 311
298 307 308 307 307 307 306 303 307 309 309 310 311 311 312 309 310 310 311 311 314 316 314 316 317 318 317 316 316 312 314 315 314 314 312 312 317 315 313 313 313 313 313 312 312
300 307 307 306 306 306 303 303 307 309 309 312 311 311 310 310 310 311 311 311 316 314 314 315 316 312 313 314 315 318 316 313 315 318 320 316 315 313 312 312 313 313 312 311 311
303 304 307 305 306 305 304 308 307 307 310 312 311 311 312 311 312 313 312 312 313 311 310 312 314 312 315 314 315 316 316 319 319 315 321 318 318 314 313 312 312 312 315 314 310
302 303 305 305 305 301 301 303 307 308 310 309 309 311 312 313 313 312 312 311 311 312 310 311 312 312 312 313 316 318 320 320 315 313 312 317 317 314 314 312 311 312 315 316 313
301 301 305 303 300 298 302 304 307 309 307 308 309 311 313 314 314 311 311 312 310 311 313 312 315 314 312 311 314 316 319 320 323 317 315 315 315 312 314 317 317 316 315 320 318
302 303 304 302 301 301 301 304 305 307 306 308 308 311 311 314 312 313 312 309 310 312 313 311 311 314 309 316 318 317 318 317 317 319 320 317 316 313 313 317 315 317 317 327 324
302 301 298 296 298 302 303 304 306 306 306 306 307 310 312 311 310 313 313 311 311 312 314 314 314 314 310 307 312 313 314 315 318 320 319 320 318 317 318 318 317 318 319 331 335
296 299 299 298 300 301 301 303 305 305 306 304 309 309 308 310 310 313 312 313 312 312 312 311 315 313 314 314 313 315 315 315 317 319 323 321 319 318 318 321 322 321 323 336 341
297 299 298 299 300 301 301 302 304 305 304 305 308 307 307 309 310 312 312 312 313 311 310 310 312 311 313 312 312 313 313 314 315 316 319 322 321 317 322 321 320 321 324 339 345
297 299 300 301 300 302 302 302 303 304 304 306 306 306 307 309 308 308 308 309 310 312 312 312 313 313 314 314 315 318 318 319 320 317 319 324 319 322 321 320 319 320 323 336 341
Wind_Speed
24 24 24 24 24 25 25 25 24 21 20 19 19 20 22 24 26 24 9 10 8 6 10 7 5 8 8 5 4 5 3 6 8 9 14 2 4 3 2 5 3 5 4 13 33
27 28 28 27 27 27 26 24 21 20 20 20 19 18 19 21 26 17 11 9 12 9 7 8 6 8 3 5 5 5 6 12 7 17 4 5 4 2 4 6 6 7 10 18 34
31 31 32 32 31 30 27 24 22 20 18 16 15 15 16 19 5 5 11 15 11 8 13 11 6 5 4 4 6 6 15 15 5 7 8 4 7 4 3 9 9 6 9 2 23
33 35 36 36 32 29 24 25 23 19 17 15 12 11 11 6 5 1 7 21 13 17 16 7 3 5 6 10 5 6 11 19 5 14 6 4 5 3 9 13 6 6 1 4 13
31 32 32 32 32 28 25 25 25 25 22 15 9 5 3 4 9 11 22 24 27 14 18 11 7 5 7 6 8 7 3 7 19 11 8 9 14 7 18 11 13 14 6 11 19
32 33 32 31 29 28 28 27 25 26 24 15 7 1 2 4 10 18 22 25 20 9 10 12 8 9 5 4 10 4 10 19 14 9 5 14 18 6 27 11 12 8 9 7 18
35 35 32 30 28 29 31 27 26 23 12 9 4 4 1 9 11 20 19 17 17 10 4 18 23 4 5 5 6 8 11 12 13 4 8 6 18 30 16 15 16 13 8 6 10
37 37 32 28 27 30 29 30 26 13 5 7 4 5 7 9 19 18 14 17 13 8 16 21 18 11 3 6 5 3 3 4 9 11 8 12 27 16 12 10 12 14 8 7 8
41 40 32 27 28 27 28 23 15 2 3 4 4 3 9 15 9 19 12 9 16 14 8 12 7 7 4 5 5 4 5 7 6 4 7 16 21 4 8 9 11 11 8 7 7
41 40 30 25 26 22 26 15 3 3 7 3 3 1 4 9 17 22 19 15 9 6 5 3 1 5 2 6 10 5 4 2 4 2 6 13 23 12 10 7 12 9 10 7 10
41 41 31 25 25 17 24 8 7 5 2 4 12 5 11 21 16 9 19 4 2 1 3 4 4 7 11 5 4 10 12 7 5 9 9 6 14 9 7 11 11 9 8 7 10
43 42 35 26 24 9 13 4 3 7 8 7 11 8 17 13 5 8 18 5 3 7 3 1 9 14 8 7 7 9 10 13 5 6 6 9 17 9 4 9 10 14 9 10 7
45 43 43 26 16 6 8 6 14 5 2 8 5 4 7 8 5 10 7 8 11 13 7 10 9 3 8 7 11 9 13 8 6 7 15 9 18 14 6 10 8 8 7 9 14
46 46 42 27 4 15 8 16 17 5 3 5 3 3 9 10 4 12 5 5 4 7 5 6 5 10 11 8 8 6 4 1 5 5 5 1 7 12 6 10 8 10 7 10 13
50 49 38 12 11 6 14 21 18 4 3 6 1 3 8 2 9 5 8 5 6 9 3 6 4 3 8 13 9 9 7 6 4 7 3 6 4 5 8 7 11 10 9 8 9
52 49 24 3 7 13 20 23 5 5 5 6 5 19 12 13 5 8 5 1 4 4 6 11 4 5 7 5 6 5 5 2 4 3 8 7 7 17 11 11 8 7 8 5 8
52 36 11 5 6 18 24 4 4 4 6 6 14 15 17 10 12 7 11 7 4 6 6 9 3 4 7 4 3 4 6 2 2 4 10 9 9 21 3 5 12 11 7 2 9
52 27 10 11 17 18 11 5 3 1 5 10 13 18 6 13 7 13 6 3 3 2 4 4 5 1 1 4 6 7 8 4 6 5 11 9 8 16 13 16 18 18 17 5 8
49 22 12 21 21 12 5 4 3 3 7 7 11 6 4 15 8 6 6 3 3 5 2 4 5 6 10 10 4 4 5 9 4 5 3 4 3 23 22 16 14 18 11 7 10
25 13 11 29 14 3 4 3 3 3 7 7 4 4 17 14 6 6 3 4 1 2 4 5 10 7 4 3 5 12 4 2 3 5 7 5 4 11 5 19 22 14 7 6 8
8 4 23 29 4 6 3 4 5 5 12 6 10 6 7 9 4 3 6 7 5 5 5 5 5 6 8 4 5 2 4 6 4 5 5 3 5 18 18 9 11 15 5 8 8
8 4 23 24 5 3 3 7 8 6 9 8 7 4 4 6 6 5 7 5 5 5 7 2 4 5 9 11 5 3 3 2 3 5 5 3 12 5 3 6 5 6 6 8 8
6 3 11 12 4 4 7 7 5 9 10 4 5 2 6 4 7 7 7 5 10 5 3 2 4 5 9 2 3 3 4 7 3 3 7 6 6 4 6 6 6 6 8 8 7
3 4 4 4 2 2 6 6 5 7 11 11 11 5 7 12 11 6 10 8 3 12 21 14 5 7 9 7 3 11 12 11 7 5 7 14 9 7 5 1 6 6 8 7 9
3 1 0 4 4 8 2 4 9 8 3 11 4 8 17 7 17 5 9 11 13 16 1 2 4 9 15 20 20 22 23 19 18 15 10 9 19 20 13 6 5 5 8 7 10
2 3 4 4 8 5 3 3 8 12 8 13 5 20 21 10 15 23 20 17 6 4 2 2 4 3 15 19 19 21 20 20 21 21 20 19 19 16 7 7 6 2 5 10 14
6 4 1 4 4 6 4 11 18 15 9 8 17 22 20 17 19 27 22 19 13 4 3 3 3 3 5 8 13 10 13 15 14 13 16 14 14 6 6 6 3 3 1 9 16
Wind_Direction
353 349 346 343 340 337 335 334 332 328 325 324 324 324 323 320 314 309 240 251 257 326 222 219 161 171 178 207 205 142 186 222 222 200 221 85 206 285 239 227 326 202 234 234 135
351 348 346 342 339 336 333 330 325 321 322 320 319 320 321 321 308 274 323 348 334 271 244 205 170 144 180 202 211 180 196 216 211 233 269 248 267 302 304 307 294 302 348 150 142
352 349 345 341 338 336 334 330 328 327 324 322 317 317 320 323 307 246 77 20 353 314 239 232 246 161 203 176 201 208 233 228 219 231 244 218 273 205 253 278 235 262 20 223 154
353 348 344 342 347 349 351 344 336 327 322 316 312 314 316 317 307 128 326 323 318 340 217 237 208 189 194 210 218 241 232 239 253 254 277 270 270 212 215 244 244 263 232 223 209
345 343 341 338 337 343 349 348 344 343 332 320 306 320 14 10 255 321 330 322 315 318 199 202 202 175 188 208 222 240 265 249 241 252 247 289 265 265 265 266 282 283 270 234 196
344 343 341 338 338 344 347 341 332 329 329 319 297 237 183 313 279 325 323 319 318 304 222 197 206 201 269 241 197 245 214 250 266 248 239 246 269 267 260 249 252 247 255 243 188
348 346 342 341 344 348 347 342 338 329 329 320 248 198 184 237 311 309 308 300 325 266 295 227 231 230 190 286 257 267 280 276 243 217 240 201 270 244 264 273 285 275 259 212 198
348 349 345 349 351 350 347 343 337 328 338 350 143 173 247 293 318 313 318 304 306 272 246 265 233 231 197 304 317 301 246 220 265 187 215 163 257 269 226 204 239 253 228 197 196
355 356 352 355 354 351 349 353 337 322 338 357 126 151 282 325 312 320 312 262 289 284 245 258 219 211 237 223 316 234 244 226 292 212 201 194 250 196 182 194 226 240 230 179 185
353 357 351 353 353 353 358 4 49 349 334 291 260 309 294 314 319 310 310 274 250 304 338 151 148 188 264 189 225 219 258 235 208 294 201 224 255 267 284 225 227 229 247 176 183
355 357 349 346 349 351 357 11 10 348 13 236 270 253 278 301 319 320 355 315 282 149 226 258 168 228 234 231 243 293 288 275 304 320 337 263 273 267 248 262 237 236 231 199 196
355 355 348 339 340 343 1 61 306 265 310 304 256 239 270 299 301 326 357 339 254 242 222 274 225 229 184 206 235 247 265 277 288 266 296 300 289 283 268 256 243 233 194 214 172
352 352 352 334 334 337 336 350 1 266 307 295 252 262 323 324 292 317 8 309 295 280 232 218 249 264 222 216 238 237 245 257 259 284 278 277 284 269 241 237 273 256 195 190 202
348 349 347 336 327 332 297 342 339 256 38 282 316 288 0 322 346 316 334 285 307 300 285 238 248 235 220 220 196 224 240 296 307 272 259 44 281 262 178 229 234 261 230 200 207
345 345 341 335 296 300 319 322 331 137 343 313 210 271 331 357 282 298 316 298 271 267 281 257 293 223 221 223 226 239 216 231 265 262 9 293 277 256 162 232 251 248 255 217 193
343 343 336 340 282 318 325 335 121 45 266 333 353 324 323 320 287 296 311 267 269 289 250 253 275 206 223 193 208 213 163 145 181 132 248 202 207 268 222 229 271 261 250 230 210
342 346 334 300 271 318 328 17 28 131 2 317 318 322 313 302 318 319 322 341 359 340 350 313 252 250 186 179 174 83 110 257 268 194 248 162 213 249 277 250 234 276 290 290 208
340 344 327 307 314 315 338 34 77 34 289 323 319 311 300 348 326 323 303 323 59 333 294 328 331 347 53 186 206 186 160 180 199 227 252 188 214 248 245 268 263 277 278 284 221
341 351 16 358 329 315 67 39 234 333 324 310 315 305 282 323 335 320 297 240 156 209 14 316 257 324 278 263 187 235 194 206 270 213 303 254 268 249 247 259 268 259 288 289 234
339 329 340 351 341 91 77 245 269 294 314 314 310 312 318 322 317 338 297 253 345 48 61 269 289 262 305 313 212 202 148 95 170 201 239 242 209 238 183 231 243 261 280 326 271
7 0 356 352 7 46 110 256 289 301 338 323 293 301 291 309 268 269 258 305 12 343 338 273 227 290 347 238 196 125 211 212 184 166 183 225 230 231 235 229 236 238 246 253 261
352 345 0 357 49 23 8 313 299 302 333 302 329 319 261 288 276 273 245 267 27 331 319 279 292 274 241 246 277 266 211 224 215 229 240 190 249 264 84 157 200 237 263 254 239
334 286 5 46 65 350 317 303 281 324 317 327 287 301 295 295 302 247 269 262 296 255 257 251 255 307 318 353 69 185 216 200 265 284 222 202 261 218 245 167 257 250 311 272 233
352 348 335 33 98 154 323 312 315 311 301 343 283 307 320 295 280 272 269 288 253 269 268 267 229 213 236 238 294 277 248 240 236 259 246 229 248 238 232 298 301 301 313 249 188
25 322 266 325 327 317 285 283 331 340 301 314 295 295 317 290 303 251 272 274 284 289 261 168 270 245 259 261 268 266 268 265 252 244 250 270 244 239 246 197 235 258 279 205 186
41 12 355 282 280 304 308 280 316 324 313 300 273 311 308 287 277 296 301 293 268 282 212 187 268 284 274 267 259 261 261 257 252 245 234 254 253 226 170 163 197 260 326 191 167
350 327 152 279 300 307 312 322 311 332 297 266 305 307 302 297 311 293 282 274 252 249 208 236 261 291 263 298 289 261 253 243 244 232 212 215 235 165 195 179 195 177 192 211 151